SCO17EF EGPH-EGGD

Flight info

Callsign SCO17EF
Flight time 0h 59m
Altitude 33000
Route GOSAM P600 FENIK L612 NAVSO DCT ADZOP DCT EGTOC DCT NOKIN N862 KARNO/N0406F320 DCT ALHUP DCT LUCSA/N0352F230 N862 WEVBE
Aircraft A320/M-SDE3FGHIRWY/LB1

Departure

Time 2026-05-05 22:09
Airport Edinburgh Airport (EGPH)

Arrival

Time 2026-05-05 23:08
Airport Bristol Airport (EGGD)
Time Latitude Longitude Altitude Speed Heading
2026-05-05 21:48 55.94854 -3.36604 114 ft 0 kts 145°
2026-05-05 21:48 55.94860 -3.36611 113 ft 0 kts 145°
2026-05-05 22:01 55.94876 -3.36631 112 ft 4 kts 145°
2026-05-05 22:01 55.94897 -3.36657 112 ft 4 kts 158°
2026-05-05 22:01 55.94920 -3.36659 115 ft 4 kts 214°
2026-05-05 22:02 55.94933 -3.36635 112 ft 0 kts 239°
2026-05-05 22:04 55.94929 -3.36649 115 ft 6 kts 239°
2026-05-05 22:04 55.94903 -3.36722 113 ft 7 kts 238°
2026-05-05 22:04 55.94922 -3.36842 116 ft 12 kts 305°
2026-05-05 22:04 55.94900 -3.36972 115 ft 11 kts 239°
2026-05-05 22:05 55.94861 -3.37087 116 ft 12 kts 238°
2026-05-05 22:05 55.94794 -3.37286 114 ft 22 kts 239°
2026-05-05 22:05 55.94720 -3.37503 116 ft 19 kts 239°
2026-05-05 22:05 55.94654 -3.37698 115 ft 18 kts 239°
2026-05-05 22:06 55.94590 -3.37886 116 ft 17 kts 239°
2026-05-05 22:06 55.94531 -3.38063 116 ft 16 kts 238°
2026-05-05 22:06 55.94470 -3.38240 114 ft 23 kts 239°
2026-05-05 22:06 55.94392 -3.38470 113 ft 20 kts 239°
2026-05-05 22:07 55.94319 -3.38688 113 ft 21 kts 239°
2026-05-05 22:07 55.94292 -3.38867 116 ft 12 kts 310°
2026-05-05 22:07 55.94316 -3.38897 115 ft 0 kts 327°
2026-05-05 22:08 55.94339 -3.38924 115 ft 16 kts 327°
2026-05-05 22:08 55.94426 -3.38952 112 ft 12 kts 57°
2026-05-05 22:08 55.94485 -3.38765 113 ft 39 kts 59°
2026-05-05 22:08 55.94765 -3.37940 115 ft 112 kts 58°
2026-05-05 22:09 55.95273 -3.36448 198 ft 161 kts 60°
2026-05-05 22:09 55.95867 -3.34726 856 ft 165 kts 59°
2026-05-05 22:09 55.96650 -3.33219 1699 ft 169 kts 41°
2026-05-05 22:09 55.97586 -3.31902 2432 ft 174 kts 42°
2026-05-05 22:10 55.98465 -3.30439 3196 ft 174 kts 46°
2026-05-05 22:10 55.99374 -3.28946 3811 ft 186 kts 38°
2026-05-05 22:10 56.00665 -3.28096 4185 ft 216 kts
2026-05-05 22:10 56.02200 -3.28816 4672 ft 248 kts 328°
2026-05-05 22:11 56.03289 -3.31327 5441 ft 268 kts 290°
2026-05-05 22:11 56.03435 -3.34652 6531 ft 272 kts 266°
2026-05-05 22:11 56.03061 -3.37963 7659 ft 272 kts 257°
2026-05-05 22:11 56.02510 -3.41187 8665 ft 275 kts 254°
2026-05-05 22:12 56.01910 -3.44454 9673 ft 278 kts 255°
2026-05-05 22:12 56.01323 -3.47775 10440 ft 289 kts 256°
2026-05-05 22:12 56.00735 -3.51360 10832 ft 310 kts 257°
2026-05-05 22:12 56.00160 -3.55113 11562 ft 317 kts 257°
2026-05-05 22:13 55.99317 -3.58789 12391 ft 326 kts 240°
2026-05-05 22:13 55.97747 -3.61762 13254 ft 336 kts 218°
2026-05-05 22:13 55.95625 -3.63473 14083 ft 346 kts 195°
2026-05-05 22:13 55.93235 -3.64164 14867 ft 350 kts 191°
2026-05-05 22:14 55.90821 -3.64758 15633 ft 352 kts 191°
2026-05-05 22:14 55.88379 -3.65331 16389 ft 355 kts 191°
2026-05-05 22:14 55.85913 -3.65905 17137 ft 358 kts 191°
2026-05-05 22:14 55.83435 -3.66490 17877 ft 361 kts 191°
2026-05-05 22:15 55.80931 -3.67097 18585 ft 364 kts 191°
2026-05-05 22:15 55.78410 -3.67718 19213 ft 367 kts 191°
2026-05-05 22:15 55.75869 -3.68345 19846 ft 370 kts 191°
2026-05-05 22:15 55.73305 -3.68978 20481 ft 373 kts 191°
2026-05-05 22:16 55.70724 -3.69612 21091 ft 376 kts 191°
2026-05-05 22:16 55.68129 -3.70246 21733 ft 379 kts 191°
2026-05-05 22:16 55.65499 -3.70888 22367 ft 382 kts 191°
2026-05-05 22:16 55.62869 -3.71534 22994 ft 385 kts 191°
2026-05-05 22:17 55.60197 -3.72194 23626 ft 388 kts 191°
2026-05-05 22:17 55.57516 -3.72855 24146 ft 391 kts 191°
2026-05-05 22:17 55.54816 -3.73513 24663 ft 393 kts 191°
2026-05-05 22:17 55.52093 -3.74171 25160 ft 396 kts 191°
2026-05-05 22:18 55.49365 -3.74827 25652 ft 398 kts 191°
2026-05-05 22:18 55.46605 -3.75494 26113 ft 400 kts 191°
2026-05-05 22:18 55.43841 -3.76166 26564 ft 403 kts 191°
2026-05-05 22:18 55.41052 -3.76842 27014 ft 406 kts 191°
2026-05-05 22:19 55.38247 -3.77517 27451 ft 408 kts 191°
2026-05-05 22:19 55.35429 -3.78192 27910 ft 410 kts 191°
2026-05-05 22:19 55.33550 -3.78641 28202 ft 412 kts 191°
2026-05-05 22:19 55.29743 -3.79551 28779 ft 415 kts 191°
2026-05-05 22:20 55.26913 -3.80231 29206 ft 417 kts 191°
2026-05-05 22:20 55.24963 -3.80626 29483 ft 420 kts 187°
2026-05-05 22:20 55.22023 -3.80552 29871 ft 427 kts 178°
2026-05-05 22:20 55.18149 -3.79104 30313 ft 435 kts 166°
2026-05-05 22:21 55.16188 -3.78018 30536 ft 437 kts 166°
2026-05-05 22:21 55.13292 -3.76421 30859 ft 439 kts 166°
2026-05-05 22:21 55.10375 -3.74818 31167 ft 440 kts 166°
2026-05-05 22:21 55.07445 -3.73213 31485 ft 442 kts 166°
2026-05-05 22:22 55.04538 -3.71629 31771 ft 444 kts 166°
2026-05-05 22:22 55.01588 -3.70025 32168 ft 443 kts 166°
2026-05-05 22:22 54.98656 -3.68432 32598 ft 441 kts 166°
2026-05-05 22:22 54.95722 -3.66834 32996 ft 441 kts 166°
2026-05-05 22:23 54.92819 -3.65252 33076 ft 447 kts 166°
2026-05-05 22:23 54.86777 -3.61982 33100 ft 460 kts 166°
2026-05-05 22:24 54.80622 -3.58666 33104 ft 465 kts 166°
2026-05-05 22:24 54.74437 -3.55327 33095 ft 466 kts 166°
2026-05-05 22:25 54.68247 -3.52004 33084 ft 466 kts 166°
2026-05-05 22:25 54.62039 -3.48696 33093 ft 467 kts 166°
2026-05-05 22:26 54.55825 -3.45377 33084 ft 467 kts 166°
2026-05-05 22:26 54.49609 -3.42072 33085 ft 467 kts 166°
2026-05-05 22:27 54.43391 -3.38783 33071 ft 468 kts 166°
2026-05-05 22:27 54.37167 -3.35502 33080 ft 468 kts 166°
2026-05-05 22:28 54.30978 -3.32246 33085 ft 468 kts 166°
2026-05-05 22:28 54.24753 -3.28974 33079 ft 468 kts 166°
2026-05-05 22:29 54.18507 -3.25847 33067 ft 466 kts 171°
2026-05-05 22:29 54.12095 -3.24602 33078 ft 463 kts 178°
2026-05-05 22:30 54.05671 -3.23609 33076 ft 463 kts 178°
2026-05-05 22:30 53.99261 -3.22433 33072 ft 466 kts 171°
2026-05-05 22:31 53.92927 -3.20010 33073 ft 467 kts 170°
2026-05-05 22:31 53.86584 -3.17602 33070 ft 467 kts 170°
2026-05-05 22:32 53.80245 -3.15218 33070 ft 467 kts 170°
2026-05-05 22:32 53.73938 -3.12848 33070 ft 467 kts 170°
2026-05-05 22:33 53.67602 -3.10464 33064 ft 467 kts 169°
2026-05-05 22:33 53.61255 -3.08083 33068 ft 467 kts 169°
2026-05-05 22:34 53.54921 -3.05714 33068 ft 467 kts 170°
2026-05-05 22:34 53.48578 -3.03347 33068 ft 467 kts 170°
2026-05-05 22:35 53.42233 -3.00991 33082 ft 467 kts 170°
2026-05-05 22:35 53.35920 -2.98659 33084 ft 467 kts 170°
2026-05-05 22:36 53.29565 -2.96317 33084 ft 467 kts 170°
2026-05-05 22:36 53.23224 -2.93983 33062 ft 467 kts 170°
2026-05-05 22:37 53.16968 -2.91685 33059 ft 466 kts 170°
2026-05-05 22:37 53.10633 -2.89376 33053 ft 466 kts 170°
2026-05-05 22:37 53.07473 -2.88511 32911 ft 462 kts 178°
2026-05-05 22:38 53.04274 -2.88536 32569 ft 460 kts 185°
2026-05-05 22:38 53.01079 -2.88811 31930 ft 461 kts 185°
2026-05-05 22:38 52.97881 -2.89097 31289 ft 462 kts 185°
2026-05-05 22:38 52.94660 -2.89385 30644 ft 463 kts 185°
2026-05-05 22:39 52.91439 -2.89667 30017 ft 465 kts 185°
2026-05-05 22:39 52.88217 -2.90116 29293 ft 464 kts 190°
2026-05-05 22:39 52.85010 -2.90870 28591 ft 466 kts 190°
2026-05-05 22:39 52.81793 -2.91628 27902 ft 468 kts 190°
2026-05-05 22:40 52.78555 -2.92390 27235 ft 470 kts 190°
2026-05-05 22:40 52.75307 -2.93152 26574 ft 472 kts 190°
2026-05-05 22:40 52.72054 -2.93916 25929 ft 474 kts 189°
2026-05-05 22:40 52.68750 -2.94362 25479 ft 477 kts 185°
2026-05-05 22:41 52.65433 -2.94670 25239 ft 478 kts 185°
2026-05-05 22:41 52.62109 -2.94943 24993 ft 477 kts 184°
2026-05-05 22:41 52.58794 -2.95195 24750 ft 476 kts 184°
2026-05-05 22:41 52.55500 -2.95439 24510 ft 475 kts 184°
2026-05-05 22:42 52.52241 -2.95685 24100 ft 472 kts 184°
2026-05-05 22:42 52.48930 -2.95946 23595 ft 469 kts 185°
2026-05-05 22:42 52.45682 -2.96213 22999 ft 466 kts 184°
2026-05-05 22:42 52.42458 -2.96485 22425 ft 462 kts 184°
2026-05-05 22:43 52.39264 -2.96753 21860 ft 458 kts 184°
2026-05-05 22:43 52.36095 -2.97018 21308 ft 455 kts 184°
2026-05-05 22:43 52.32988 -2.97275 20772 ft 452 kts 184°
2026-05-05 22:43 52.29859 -2.97531 20240 ft 449 kts 184°
2026-05-05 22:44 52.26750 -2.97783 19717 ft 446 kts 184°
2026-05-05 22:44 52.23660 -2.98033 19193 ft 443 kts 184°
2026-05-05 22:44 52.20560 -2.98287 18682 ft 439 kts 184°
2026-05-05 22:44 52.17556 -2.98536 18170 ft 437 kts 184°
2026-05-05 22:45 52.14533 -2.98785 17599 ft 433 kts 184°
2026-05-05 22:45 52.11532 -2.99030 17037 ft 430 kts 184°
2026-05-05 22:45 52.08543 -2.99272 16488 ft 428 kts 184°
2026-05-05 22:45 52.05585 -2.99507 15947 ft 425 kts 184°
2026-05-05 22:46 52.02639 -2.99738 15428 ft 422 kts 184°
2026-05-05 22:46 51.99714 -2.99971 14900 ft 420 kts 184°
2026-05-05 22:46 51.96799 -3.00182 14512 ft 418 kts 182°
2026-05-05 22:46 51.93926 -2.99575 14267 ft 419 kts 165°
2026-05-05 22:47 51.91172 -2.98014 14031 ft 419 kts 161°
2026-05-05 22:47 51.88432 -2.96377 13789 ft 418 kts 160°
2026-05-05 22:47 51.85717 -2.94742 13520 ft 416 kts 160°
2026-05-05 22:47 51.83019 -2.93113 13178 ft 411 kts 160°
2026-05-05 22:48 51.80412 -2.91541 12963 ft 384 kts 160°
2026-05-05 22:48 51.78011 -2.90099 12722 ft 353 kts 160°
2026-05-05 22:48 51.75807 -2.88786 12582 ft 325 kts 161°
2026-05-05 22:48 51.73744 -2.87560 12289 ft 310 kts 161°
2026-05-05 22:49 51.71739 -2.86367 11967 ft 308 kts 161°
2026-05-05 22:49 51.69698 -2.85381 11634 ft 305 kts 166°
2026-05-05 22:49 51.67650 -2.84525 11299 ft 303 kts 170°
2026-05-05 22:49 51.65596 -2.84545 10979 ft 297 kts 195°
2026-05-05 22:50 51.63747 -2.85883 10640 ft 290 kts 215°
2026-05-05 22:50 51.62165 -2.87806 10287 ft 287 kts 225°
2026-05-05 22:50 51.60737 -2.90093 9903 ft 283 kts 228°
2026-05-05 22:50 51.59471 -2.92410 9476 ft 270 kts 236°
2026-05-05 22:51 51.58418 -2.94839 9054 ft 263 kts 237°
2026-05-05 22:51 51.57126 -2.96915 8629 ft 266 kts 215°
2026-05-05 22:51 51.55545 -2.98448 8216 ft 266 kts 211°
2026-05-05 22:51 51.53926 -2.99908 7729 ft 268 kts 210°
2026-05-05 22:52 51.52310 -3.01355 7233 ft 262 kts 210°
2026-05-05 22:52 51.50744 -3.02751 6720 ft 255 kts 210°
2026-05-05 22:52 51.49207 -3.04134 6211 ft 250 kts 210°
2026-05-05 22:52 51.47654 -3.05239 5702 ft 250 kts 192°
2026-05-05 22:53 51.45916 -3.05654 5181 ft 255 kts 186°
2026-05-05 22:53 51.44118 -3.05946 4661 ft 259 kts 185°
2026-05-05 22:53 51.42335 -3.06228 4135 ft 262 kts 185°
2026-05-05 22:53 51.40535 -3.06503 3929 ft 252 kts 180°
2026-05-05 22:54 51.38869 -3.06040 3917 ft 235 kts 160°
2026-05-05 22:54 51.37495 -3.04819 3918 ft 227 kts 128°
2026-05-05 22:54 51.36952 -3.02632 3910 ft 200 kts 85°
2026-05-05 22:54 51.37098 -3.00498 3921 ft 189 kts 82°
2026-05-05 22:55 51.37197 -2.98448 3773 ft 185 kts 84°
2026-05-05 22:55 51.37279 -2.96472 3535 ft 171 kts 83°
2026-05-05 22:55 51.37354 -2.94640 3318 ft 163 kts 83°
2026-05-05 22:55 51.37427 -2.92864 3107 ft 160 kts 83°
2026-05-05 22:56 51.37500 -2.91084 2883 ft 160 kts 83°
2026-05-05 22:56 51.37572 -2.89317 2672 ft 158 kts 83°
2026-05-05 22:56 51.37643 -2.87573 2455 ft 157 kts 83°
2026-05-05 22:56 51.37710 -2.85890 2271 ft 145 kts 82°
2026-05-05 22:57 51.37771 -2.84373 2070 ft 138 kts 80°
2026-05-05 22:57 51.37833 -2.82827 1878 ft 135 kts 80°
2026-05-05 22:57 51.37903 -2.81341 1657 ft 133 kts 79°
2026-05-05 22:57 51.37943 -2.79864 1463 ft 133 kts 83°
2026-05-05 22:58 51.37985 -2.78376 1313 ft 135 kts 80°
2026-05-05 22:58 51.38071 -2.76860 1089 ft 135 kts 81°
2026-05-05 22:58 51.38130 -2.75362 935 ft 136 kts 82°
2026-05-05 22:58 51.38190 -2.73868 717 ft 135 kts 82°
2026-05-05 22:59 51.38251 -2.72288 651 ft 136 kts 84°
2026-05-05 22:59 51.38318 -2.70555 1035 ft 172 kts 83°
2026-05-05 22:59 51.38374 -2.68572 1916 ft 185 kts 84°
2026-05-05 22:59 51.38410 -2.66417 2708 ft 202 kts 84°
2026-05-05 23:00 51.39893 -2.63037 3254 ft 200 kts 17°
2026-05-05 23:00 51.41271 -2.63083 3507 ft 206 kts 341°
2026-05-05 23:00 51.42401 -2.64471 3761 ft 213 kts 305°
2026-05-05 23:01 51.42945 -2.66596 3941 ft 218 kts 285°
2026-05-05 23:01 51.43138 -2.69011 4003 ft 221 kts 274°
2026-05-05 23:01 51.43190 -2.71469 4006 ft 221 kts 273°
2026-05-05 23:01 51.43211 -2.73942 4009 ft 222 kts 272°
2026-05-05 23:02 51.43224 -2.76405 4010 ft 222 kts 272°
2026-05-05 23:02 51.43236 -2.78874 4006 ft 221 kts 271°
2026-05-05 23:02 51.43190 -2.81345 4025 ft 222 kts 269°
2026-05-05 23:02 51.43133 -2.83810 4024 ft 221 kts 270°
2026-05-05 23:03 51.43068 -2.86286 3982 ft 224 kts 269°
2026-05-05 23:03 51.43005 -2.88745 3791 ft 220 kts 269°
2026-05-05 23:03 51.42914 -2.91199 3616 ft 219 kts 262°
2026-05-05 23:03 51.42278 -2.93340 3436 ft 213 kts 227°
2026-05-05 23:04 51.41149 -2.94854 3203 ft 211 kts 211°
2026-05-05 23:04 51.39862 -2.95864 3097 ft 202 kts 200°
2026-05-05 23:04 51.38544 -2.96329 3038 ft 189 kts 168°
2026-05-05 23:04 51.37504 -2.95296 2973 ft 175 kts 116°
2026-05-05 23:05 51.37368 -2.93469 2894 ft 167 kts 76°
2026-05-05 23:05 51.37516 -2.91620 2813 ft 169 kts 84°
2026-05-05 23:05 51.37570 -2.89739 2674 ft 168 kts 84°
2026-05-05 23:05 51.37635 -2.87898 2482 ft 164 kts 83°
2026-05-05 23:06 51.37705 -2.86087 2272 ft 161 kts 82°
2026-05-05 23:06 51.37775 -2.84319 2061 ft 157 kts 81°
2026-05-05 23:06 51.37840 -2.82647 1859 ft 146 kts 81°
2026-05-05 23:06 51.37904 -2.81056 1647 ft 141 kts 81°
2026-05-05 23:07 51.37965 -2.79516 1450 ft 137 kts 81°
2026-05-05 23:07 51.38027 -2.77988 1246 ft 138 kts 82°
2026-05-05 23:07 51.38101 -2.76459 1059 ft 138 kts 79°
2026-05-05 23:07 51.38152 -2.74923 839 ft 138 kts 83°
2026-05-05 23:08 51.38208 -2.73417 683 ft 136 kts 84°
2026-05-05 23:08 51.38247 -2.72441 631 ft 125 kts 84°
2026-05-05 23:08 51.38293 -2.71284 609 ft 80 kts 86°
2026-05-05 23:08 51.38308 -2.70855 612 ft 21 kts 87°
2026-05-05 23:09 51.38376 -2.70747 617 ft 13 kts 21°
2026-05-05 23:09 51.38457 -2.70724 611 ft 12 kts 326°
2026-05-05 23:09 51.38474 -2.70817 612 ft 5 kts 293°
2026-05-05 23:09 51.38492 -2.70830 617 ft 3 kts 343°
2026-05-05 23:10 51.38526 -2.70842 612 ft 3 kts 306°
2026-05-05 23:10 51.38528 -2.70880 612 ft 3 kts 270°
2026-05-05 23:10 51.38527 -2.70886 612 ft 2 kts 269°
2026-05-05 23:10 51.38527 -2.70902 615 ft 0 kts 267°